Home > Weather > Emmendingen > Past weeks

Flag for Germany Past Weather in Emmendingen, Baden-Württemberg, Germany — Yesterday and Last 2 Weeks

Now
64 °F

Clear.


Feels Like: 64 °F
Forecast: 63 / 90 °F
Wind: 1 mph from South

Location: Lahr

Current Time: Aug 27, 2016 at 5:07:57 AM

Latest Report: Aug 27, 2016 at 4:00 AM


Visibility: 11 mi

Pressure: 30.05 "Hg

Humidity: 94%

Dew Point: 62 °F

Location of EmmendingenLocation

Past Weather in Emmendingen — Graph

°F

Emmendingen Temperature Yesterday

Maximum temperature yesterday: 94 °F (at 4:00 PM)
Minimum temperature yesterday: 61 °F (at 7:00 AM)
Average temperature yesterday: 76 °F

High & Low Weather Summary for the Past Weeks

 TemperatureHumidityPressure
High94 °F (Aug 26, 4:00 PM)100% (Aug 19, 4:00 AM)30.38 "Hg (Aug 19, 4:00 AM)
Low53 °F (Aug 22, 6:00 AM)36% (Aug 26, 3:00 PM)29.82 "Hg (Aug 17, 7:00 PM)
Average68 °F74%30.08 "Hg
* Reported Aug 12 4:00 AM — Aug 27 4:00 AM, Emmendingen, Weather by CustomWeather, © 2016

Note: Actual official high and low records may vary slightly from our data, if they occured in-between our weather recording intervals... More about our weather records

Advertising

Emmendingen Weather History for the Previous 24 Hours

Scroll right to see more
 ConditionsComfort  
Time TempWeatherWind HumidityBarometerVisibility
4:00 AM
Sat, Aug 27
64 °FClear.1 mph94%30.05 "Hg11 mi
3:00 AM65 °FClear.1 mph91%30.04 "Hg14 mi
1:00 AM67 °FClear.1 mph89%30.04 "Hg18 mi
12:00 AM68 °FClear.1 mph88%30.04 "Hg22 mi
10:00 PM
Fri, Aug 26
72 °FClear.1 mph79%30.02 "Hg25 mi
9:00 PM75 °FClear.1 mph71%30.01 "Hg31 mi
7:00 PM89 °FSunny.2 mph43%29.98 "Hg37 mi
6:00 PM92 °FSunny.2 mph37%29.98 "Hg40 mi
4:00 PM94 °FSunny.1 mph36%29.99 "Hg34 mi
3:00 PM94 °FSunny.1 mph36%30.00 "Hg31 mi
1:00 PM89 °FSunny.2 mph48%30.02 "Hg22 mi
12:00 PM84 °FSunny.3 mph55%30.03 "Hg22 mi
10:00 AM76 °FSunny.2 mph67%30.04 "Hg17 mi
9:00 AM72 °FSunny.2 mph71%30.04 "Hg19 mi
7:00 AM61 °FSunny.1 mph92%30.04 "Hg11 mi
6:00 AM62 °FClear.1 mph91%30.03 "Hg19 mi
Weather by CustomWeather, © 2016

See weather overviewHow to use our weather pages